Location: Newark
(19.4333°N, 15.3500°W)
Time: 20:16:31
(UTC+00:00)

Hubble Space Telescope - Visible Passes

Search period start: 15 November 2019 00:00
Search period end: 25 November 2019 00:00
Orbit: 536 x 540 km, 28.5° (Epoch: 14 November)

Date Brightness Start Highest point End Pass type
(mag) Time Alt. Az. Time Alt. Az. Time Alt. Az.
15 Nov 2.1 18:40:36 10° SSW 18:44:09 28° SSE 18:47:41 10° E visible
15 Nov 2.2 20:21:07 10° WSW 20:23:41 36° W 20:23:41 36° W visible
16 Nov 1.7 20:10:39 10° W 20:13:49 43° WNW 20:13:49 43° WNW visible
17 Nov 1.6 20:00:13 10° W 20:03:55 41° NNW 20:03:55 41° NNW visible
18 Nov 1.7 19:49:50 10° W 19:53:37 35° NNW 19:53:59 34° N visible
19 Nov 1.9 19:39:27 10° WNW 19:43:07 30° NNW 19:44:01 27° NNE visible
20 Nov 2.2 19:29:07 10° WNW 19:32:38 27° N 19:34:03 22° NNE visible
21 Nov 2.3 19:18:45 10° WNW 19:22:10 25° N 19:24:04 18° NNE visible
22 Nov 2.3 19:08:23 10° WNW 19:11:43 23° N 19:14:06 15° NE visible
23 Nov 2.4 18:57:58 10° NW 19:01:15 22° N 19:04:09 12° NE visible
23 Nov 3.8 20:39:23 10° NW 20:39:29 10° NW 20:39:29 10° NW visible
24 Nov 2.3 18:47:31 10° NW 18:50:48 22° N 18:54:05 10° NE visible
24 Nov 3.3 20:28:46 10° NW 20:29:35 15° NW 20:29:35 15° NW visible
